Location: *
(51.8167°N, 12.5000°E)
Time: 00:43:25
(UTC+00:00)

HJ-1C - Pass Details

Date: 16 September 2019
Orbit: 435 x 449 km, 97.2° (Epoch: 15 October)

Event Time Altitude Azimuth Distance (km) Brightness Sun altitude
Rises 18:01:31 0° 163° (SSE) 2,435 6.8 -6.7°
Reaches altitude 10° 18:03:31 10° 162° (SSE) 1,571 5.9 -7.0°
Maximum altitude 18:06:53 81° 77° (ENE) 461 3.3 -7.5°
Drops below altitude 10° 18:10:18 10° 349° (NNW) 1,591 6.5 -8.0°
Sets 18:12:21 0° 348° (NNW) 2,470 7.5 -8.3°
